This is the latest recevied weather packets stored in our database for station/object K7DC. If no packets are shown the sender has not sent any weather packets the latest 10 day(s).
| Time | Temp. | Humidity | Pressure | Rain* | Wind** | Luminosity | Snow |
|---|---|---|---|---|---|---|---|
| 1777484144 | 23.89° C | 21% | 1017 hPa | 0 mm | - | 437 W/m² | - |
| 1777483839 | 24.44° C | 20% | 1016.9 hPa | 0 mm | - | 325 W/m² | - |
| 1777483537 | 23.89° C | 20% | 1017.1 hPa | 0 mm | - | 279 W/m² | - |
| 1777483231 | 23.89° C | 20% | 1017.1 hPa | 0 mm | - | 264 W/m² | - |
| 1777482928 | 24.44° C | 20% | 1017.1 hPa | 0 mm | - | 351 W/m² | - |
| 1777482624 | 24.44° C | 20% | 1017.1 hPa | 0 mm | - | 302 W/m² | - |
| 1777482321 | 24.44° C | 20% | 1017.3 hPa | 0 mm | - | 335 W/m² | - |
| 1777482019 | 24.44° C | 20% | 1017.2 hPa | 0 mm | - | 378 W/m² | - |
| 1777481716 | 25° C | 20% | 1017.1 hPa | 0 mm | - | 313 W/m² | - |
| 1777481413 | 24.44° C | 21% | 1016.9 hPa | 0 mm | - | 391 W/m² | - |
| 1777481109 | 24.44° C | 21% | 1017.2 hPa | 0 mm | - | 262 W/m² | - |
| 1777480806 | 23.89° C | 21% | 1017 hPa | 0 mm | - | 463 W/m² | - |
| 1777480503 | 23.33° C | 23% | 1016.8 hPa | 0 mm | - | 358 W/m² | - |
| 1777480199 | 22.22° C | 23% | 1016.8 hPa | 0 mm | - | 594 W/m² | - |
| 1777479896 | 22.22° C | 24% | 1016.9 hPa | 0 mm | - | 305 W/m² | - |
| 1777479592 | 21.11° C | 26% | 1017 hPa | 0 mm | - | 531 W/m² | - |
| 1777479290 | 21.11° C | 26% | 1016.9 hPa | 0 mm | - | 251 W/m² | - |
| 1777478987 | 20.56° C | 27% | 1016.9 hPa | 0 mm | - | 209 W/m² | - |
| 1777478683 | 20.56° C | 26% | 1016.9 hPa | 0 mm | - | 230 W/m² | - |
| 1777478379 | 20.56° C | 27% | 1017 hPa | 0 mm | - | 226 W/m² | - |
| 1777478076 | 20° C | 28% | 1016.8 hPa | 0 mm | - | 264 W/m² | - |
| 1777477772 | 19.44° C | 29% | 1017 hPa | 0 mm | - | 215 W/m² | - |
| 1777477468 | 19.44° C | 29% | 1016.9 hPa | 0 mm | - | 210 W/m² | - |
| 1777477165 | 18.89° C | 28% | 1016.8 hPa | 0 mm | - | 187 W/m² | - |
| 1777476862 | 18.89° C | 29% | 1017 hPa | 0 mm | - | 158 W/m² | - |
* Rain latest hour (hover to see other rain measurements)
** Current wind speed in m/s (hover to see current wind gust speed)